TimeHST,TemperatureF,Dew PointF,Humidity,Sea Level PressureIn,VisibilityMPH,Wind Direction,Wind SpeedMPH,Gust SpeedMPH,PrecipitationIn,Events,Conditions,WindDirDegrees,DateUTC
12:53 AM,73.9,71.1,91,30.02,10.0,ENE,12.7,-,N/A,,Partly Cloudy,70,2013-11-17 10:53:00
1:53 AM,73.9,70.0,87,30.00,10.0,East,11.5,-,N/A,,Clear,80,2013-11-17 11:53:00
2:53 AM,73.9,70.0,87,29.98,10.0,SSE,6.9,-,N/A,,Mostly Cloudy,150,2013-11-17 12:53:00
3:33 AM,73.4,71.6,94,29.98,10.0,Calm,Calm,-,N/A,,Overcast,0,2013-11-17 13:33:00
3:53 AM,73.9,70.0,87,29.97,10.0,East,10.4,-,N/A,,Overcast,100,2013-11-17 13:53:00
4:33 AM,73.4,69.8,88,29.97,10.0,East,8.1,-,N/A,,Overcast,100,2013-11-17 14:33:00
4:53 AM,75.0,70.0,84,29.96,10.0,ESE,9.2,-,N/A,,Overcast,110,2013-11-17 14:53:00
5:04 AM,73.4,69.8,88,29.96,10.0,East,9.2,-,N/A,,Overcast,100,2013-11-17 15:04:00
5:24 AM,73.4,69.8,88,29.96,10.0,ESE,6.9,-,N/A,,Mostly Cloudy,110,2013-11-17 15:24:00
5:35 AM,73.4,69.8,88,29.96,10.0,ESE,5.8,-,N/A,,Mostly Cloudy,120,2013-11-17 15:35:00
5:42 AM,71.6,69.8,94,29.96,10.0,Calm,Calm,-,N/A,,Scattered Clouds,0,2013-11-17 15:42:00
5:53 AM,72.0,70.0,93,29.95,10.0,SW,5.8,-,N/A,,Mostly Cloudy,230,2013-11-17 15:53:00
6:53 AM,70.0,69.1,97,29.96,10.0,SW,4.6,-,N/A,,Partly Cloudy,230,2013-11-17 16:53:00
7:53 AM,72.0,71.1,97,29.97,10.0,West,6.9,-,N/A,,Overcast,280,2013-11-17 17:53:00
8:53 AM,75.0,72.0,90,30.00,10.0,West,3.5,-,N/A,,Overcast,270,2013-11-17 18:53:00
9:53 AM,78.1,71.1,79,30.01,10.0,Calm,Calm,-,N/A,,Mostly Cloudy,0,2013-11-17 19:53:00
10:15 AM,78.8,71.6,78,30.01,10.0,South,5.8,-,N/A,,Mostly Cloudy,190,2013-11-17 20:15:00
10:26 AM,-9999,-9999,N/A,30.01,10.0,SSE,4.6,-,N/A,,Mostly Cloudy,160,2013-11-17 20:26:00
10:53 AM,80.6,69.8,70,29.99,10.0,South,8.1,-,N/A,,Partly Cloudy,170,2013-11-17 20:53:00
11:53 AM,82.4,70.0,66,29.98,10.0,SSE,9.2,-,N/A,,Mostly Cloudy,150,2013-11-17 21:53:00
12:53 PM,82.4,70.0,66,29.95,10.0,South,10.4,-,N/A,,Scattered Clouds,180,2013-11-17 22:53:00
1:53 PM,80.6,69.8,70,29.92,10.0,South,10.4,-,N/A,,Clear,170,2013-11-17 23:53:00
2:53 PM,80.6,69.8,70,29.91,10.0,SSE,10.4,-,N/A,,Clear,160,2013-11-18 00:53:00
3:53 PM,80.6,72.0,75,29.92,10.0,South,9.2,-,N/A,,Clear,170,2013-11-18 01:53:00
4:53 PM,78.8,71.1,77,29.93,10.0,South,6.9,-,N/A,,Partly Cloudy,190,2013-11-18 02:53:00
5:53 PM,77.0,69.8,78,29.93,10.0,West,3.5,-,0.00,,Overcast,280,2013-11-18 03:53:00
6:53 PM,73.9,71.1,91,29.95,10.0,NNW,6.9,-,N/A,,Clear,340,2013-11-18 04:53:00
7:53 PM,73.0,71.1,93,29.96,10.0,NW,6.9,-,N/A,,Mostly Cloudy,320,2013-11-18 05:53:00
8:53 PM,73.0,71.1,93,29.96,10.0,Calm,Calm,-,N/A,,Scattered Clouds,0,2013-11-18 06:53:00
9:53 PM,72.0,70.0,93,29.96,10.0,West,4.6,-,N/A,,Partly Cloudy,260,2013-11-18 07:53:00
10:53 PM,70.0,69.1,97,29.95,10.0,West,6.9,-,N/A,,Unknown,280,2013-11-18 08:53:00
11:19 PM,71.6,69.8,94,29.95,10.0,West,5.8,-,N/A,,Mostly Cloudy,280,2013-11-18 09:19:00
11:41 PM,71.6,69.8,94,29.95,10.0,West,6.9,-,N/A,,Scattered Clouds,280,2013-11-18 09:41:00